Shawnee, OK

10:04 AM CDT on July 28, 2017 (GMT -0500)
Shawnee Municipal

Weather History for KSNL - January, 2012

Change the Weather History Date:

Wednesday, January 11, 2012

  Actual Average (KTIK) Record (KTIK)
Temperature  
Mean Temperature 46 °F -  
Max Temperature 60 °F 45 °F 76 °F (2017)
Min Temperature 32 °F 27 °F 9 °F (2011)
Degree Days  
Heating Degree Days 19    
Moisture  
Dew Point 32 °F    
Average Humidity 66    
Maximum Humidity 93    
Minimum Humidity 34    
Precipitation  
Precipitation 0.00 in - - ()
Sea Level Pressure  
Sea Level Pressure 29.74 in    
Wind  
Wind Speed 4 mph (NNW)    
Max Wind Speed 28 mph    
Max Gust Speed 34 mph    
Visibility 10 miles    
Events      
Averages and records for this station are not official NWS values.
T = Trace of Precipitation, MM = Missing Value Source: NWS Daily Summary

Daily Weather History Graph

Daily Weather History Graph

Search for Another Location

Airport or City:

Trip Planner

Search our weather history database for the weather conditions in past years. The results will help you decide how hot, cold, wet, or windy it might be!

Date:

Astronomy

Jan. 11, 2012 Rise Set
Actual Time 7:37 AM CST 5:34 PM CST
Civil Twilight 7:09 AM CST 6:02 PM CST
Nautical Twilight 6:37 AM CST 6:33 PM CST
Astronomical Twilight 6:07 AM CST 7:04 PM CST
Moon 8:26 PM CST (1/11) 8:56 AM CST (1/11)
Length of Visible Light 10h 53m
Length of Day
9h 57m
Waning Gibbous, 93% of the Moon is Illuminated
Jan 11
Waning Gibbous
Jan 16
Last Quarter
Jan 23
New
Jan 30
First Quarter
Feb 7
Full

Hourly Weather History & Observations

Time (CST) Temp. Windchill Dew Point Humidity Pressure Visibility Wind Dir Wind Speed Gust Speed Precip Events Conditions
12:15 AM 37.4 °F - 30.2 °F 75% 29.78 in 10.0 mi Calm Calm - N/A   Clear
12:35 AM 35.6 °F - 30.2 °F 81% 29.78 in 10.0 mi Calm Calm - N/A   Clear
12:55 AM 35.6 °F - 30.2 °F 81% 29.77 in 10.0 mi Calm Calm - N/A   Clear
1:15 AM 35.6 °F - 30.2 °F 81% 29.77 in 10.0 mi Calm Calm - N/A   Clear
1:35 AM 35.6 °F - 30.2 °F 81% 29.76 in 10.0 mi Calm Calm - N/A   Clear
1:55 AM 35.6 °F 32.8 °F 30.2 °F 81% 29.76 in 10.0 mi WSW 3.5 mph - N/A   Clear
2:15 AM 35.6 °F - 30.2 °F 81% 29.76 in 10.0 mi Calm Calm - N/A   Clear
2:35 AM 35.6 °F - 30.2 °F 81% 29.75 in 10.0 mi Calm Calm - N/A   Clear
2:55 AM 35.6 °F - 30.2 °F 81% 29.76 in 10.0 mi Calm Calm - N/A   Clear
3:15 AM 33.8 °F - 30.2 °F 87% 29.75 in 10.0 mi Calm Calm - N/A   Clear
3:35 AM 35.6 °F - 30.2 °F 81% 29.74 in 10.0 mi Calm Calm - N/A   Clear
3:55 AM 35.6 °F - 30.2 °F 81% 29.74 in 10.0 mi Calm Calm - N/A   Clear
4:15 AM 35.6 °F - 30.2 °F 81% 29.73 in 10.0 mi Calm Calm - N/A   Clear
4:35 AM 35.6 °F - 30.2 °F 81% 29.73 in 10.0 mi Calm Calm - N/A   Clear
4:55 AM 35.6 °F - 28.4 °F 75% 29.73 in 10.0 mi Calm Calm - N/A   Clear
5:15 AM 33.8 °F - 28.4 °F 81% 29.73 in 10.0 mi Calm Calm - N/A   Clear
5:35 AM 35.6 °F - 30.2 °F 81% 29.72 in 10.0 mi Calm Calm - N/A   Clear
5:55 AM 35.6 °F - 30.2 °F 81% 29.72 in 10.0 mi Calm Calm - N/A   Clear
6:15 AM 32.0 °F - 28.4 °F 87% 29.72 in 10.0 mi Calm Calm - N/A   Clear
6:35 AM 32.0 °F - 28.4 °F 87% 29.73 in 10.0 mi Calm Calm - N/A   Clear
6:55 AM 33.8 °F - 30.2 °F 87% 29.72 in 10.0 mi Calm Calm - N/A   Clear
7:15 AM 33.8 °F - 30.2 °F 87% 29.72 in 10.0 mi Calm Calm - N/A   Clear
7:35 AM 32.0 °F - 28.4 °F 87% 29.72 in 10.0 mi Calm Calm - N/A   Clear
8:15 AM 32.0 °F 28.7 °F 30.2 °F 93% 29.73 in 10.0 mi SE 3.5 mph - N/A   Clear
8:35 AM 33.8 °F 30.8 °F 32.0 °F 93% 29.73 in 10.0 mi SE 3.5 mph - N/A   Clear
8:55 AM 37.4 °F - 32.0 °F 81% 29.73 in 10.0 mi Calm Calm - N/A   Clear
9:15 AM 37.4 °F - 32.0 °F 81% 29.74 in 10.0 mi Calm Calm - N/A   Clear
9:35 AM 41.0 °F 38.0 °F 32.0 °F 70% 29.74 in 10.0 mi SSW 4.6 mph - N/A   Clear
9:55 AM 42.8 °F - 32.0 °F 66% 29.73 in 10.0 mi Calm Calm - N/A   Clear
10:15 AM 46.4 °F - 32.0 °F 57% 29.73 in 10.0 mi Calm Calm - N/A   Clear
10:35 AM 50.0 °F - 33.8 °F 54% 29.73 in 10.0 mi Calm Calm - N/A   Clear
10:55 AM 50.0 °F - 32.0 °F 50% 29.73 in 10.0 mi Calm Calm - N/A   Clear
11:15 AM 53.6 °F - 33.8 °F 47% 29.72 in 10.0 mi Calm Calm - N/A   Clear
11:35 AM 55.4 °F - 32.0 °F 41% 29.71 in 10.0 mi Calm Calm - N/A   Clear
11:55 AM 55.4 °F - 32.0 °F 41% 29.70 in 10.0 mi NNW 4.6 mph - N/A   Clear
12:15 PM 59.0 °F - 32.0 °F 36% 29.70 in 10.0 mi NW 5.8 mph - N/A   Clear
12:35 PM 60.8 °F - 32.0 °F 34% 29.69 in 10.0 mi WNW 8.1 mph - N/A   Clear
12:55 PM 60.8 °F - 32.0 °F 34% 29.68 in 10.0 mi NNW 8.1 mph - N/A   Clear
1:15 PM 60.8 °F - 32.0 °F 34% 29.67 in 10.0 mi NNW 10.4 mph - N/A   Clear
1:35 PM 60.8 °F - 32.0 °F 34% 29.67 in 10.0 mi NNW 10.4 mph 16.1 mph N/A   Clear
1:55 PM 60.8 °F - 33.8 °F 36% 29.68 in 10.0 mi North 16.1 mph - N/A   Clear
2:15 PM 60.8 °F - 33.8 °F 36% 29.68 in 10.0 mi North 15.0 mph 20.7 mph N/A   Clear
2:35 PM 59.0 °F - 35.6 °F 42% 29.70 in 10.0 mi NNW 15.0 mph 21.9 mph N/A   Clear
2:55 PM 55.4 °F - 33.8 °F 44% 29.73 in 10.0 mi NNW 23.0 mph 29.9 mph N/A   Clear
3:15 PM 53.6 °F - 33.8 °F 47% 29.74 in 10.0 mi NNW 26.5 mph 32.2 mph N/A   Clear
3:35 PM 53.6 °F - 33.8 °F 47% 29.74 in 10.0 mi North 20.7 mph 29.9 mph N/A   Clear
3:55 PM 53.6 °F - 35.6 °F 51% 29.74 in 10.0 mi North 26.5 mph - N/A   Clear
4:15 PM 50.0 °F - 33.8 °F 54% 29.76 in 10.0 mi NNW 26.5 mph 31.1 mph N/A   Clear
4:35 PM 50.0 °F - 33.8 °F 54% 29.77 in 10.0 mi NNW 21.9 mph 34.5 mph N/A   Clear
4:55 PM 46.4 °F 37.5 °F 33.8 °F 62% 29.79 in 10.0 mi NNW 27.6 mph 34.5 mph N/A   Clear
5:15 PM 44.6 °F 35.5 °F 32.0 °F 61% 29.81 in 10.0 mi North 25.3 mph 34.5 mph N/A   Scattered Clouds
5:35 PM 44.6 °F 35.3 °F 32.0 °F 61% 29.82 in 10.0 mi NNW 26.5 mph 34.5 mph N/A   Overcast
5:55 PM 42.8 °F 33.1 °F 32.0 °F 66% 29.85 in 10.0 mi North 25.3 mph 31.1 mph N/A   Overcast
6:15 PM 42.8 °F 33.8 °F 32.0 °F 66% 29.86 in 10.0 mi North 21.9 mph 33.4 mph N/A   Overcast
6:35 PM 42.8 °F 32.7 °F 32.0 °F 66% 29.87 in 10.0 mi North 27.6 mph 33.4 mph N/A   Overcast
6:55 PM 42.8 °F 33.8 °F 32.0 °F 66% 29.89 in 10.0 mi North 21.9 mph 31.1 mph N/A   Overcast
7:15 PM 41.0 °F 31.1 °F 30.2 °F 65% 29.90 in 10.0 mi NNW 23.0 mph 35.7 mph N/A   Overcast
7:35 PM 41.0 °F 29.7 °F 30.2 °F 65% 29.92 in 10.0 mi NNW 31.1 mph 38.0 mph N/A   Overcast
7:55 PM 39.2 °F 28.3 °F 28.4 °F 65% 29.94 in 10.0 mi NNW 25.3 mph 35.7 mph N/A   Overcast
8:15 PM 37.4 °F 25.9 °F 28.4 °F 70% 29.96 in 10.0 mi NNW 25.3 mph 36.8 mph N/A   Overcast
8:35 PM 33.8 °F 20.1 °F 30.2 °F 87% 29.99 in 2.5 mi NNW 29.9 mph 38.0 mph N/A Snow Light Snow
8:55 PM 32.0 °F 18.4 °F 32.0 °F 100% 30.01 in 1.5 mi North 26.5 mph 39.1 mph N/A Snow Light Snow
9:15 PM 32.0 °F 16.7 °F 30.2 °F 93% 30.02 in 3.0 mi North 34.5 mph 46.0 mph N/A Snow Light Snow
9:35 PM 32.0 °F 18.9 °F 30.2 °F 93% 30.03 in 3.0 mi North 24.2 mph 29.9 mph N/A Snow Light Snow
9:55 PM 32.0 °F 18.6 °F 30.2 °F 93% 30.04 in 3.0 mi NNW 25.3 mph 32.2 mph N/A Snow Light Snow
10:15 PM 32.0 °F 18.6 °F 30.2 °F 93% 30.05 in 10.0 mi North 25.3 mph 33.4 mph N/A   Overcast
10:35 PM 32.0 °F 18.6 °F 28.4 °F 87% 30.06 in 10.0 mi NNW 25.3 mph - N/A   Scattered Clouds
10:55 PM 32.0 °F 20.1 °F 26.6 °F 80% 30.06 in 10.0 mi North 19.6 mph 29.9 mph N/A   Clear
11:15 PM 32.0 °F 21.2 °F 26.6 °F 80% 30.06 in 10.0 mi North 16.1 mph 23.0 mph N/A   Clear
11:35 PM 32.0 °F 21.6 °F 26.6 °F 80% 30.06 in 10.0 mi North 15.0 mph 20.7 mph N/A   Clear
11:55 PM 30.2 °F 18.9 °F 24.8 °F 80% 30.07 in 10.0 mi North 16.1 mph - N/A   Clear